Simultaneous Nadir Overpasses (SNOs) Predictions

Prediction of SNOs between AQUA and NPP Satellite Orbit:

Table of predicted SNOs for the next 14.0 days since TLE Epoch: 8/31/2013
Index Date (AQUA) Time (AQUA) Lat,Lon (AQUA) SZA (AQUA ) Date (NPP) Time (NPP) Lat,Lon (NPP) SZA (NPP ) Distance(km) Time Diff (sec)
1 09/02/2013 13:18:03 68.72,-154.01 97.34 09/02/2013 13:16:50 68.79,-154.62 97.52 25.70 73
2 09/02/2013 14:05:26 -75.38, 25.88 89.67 09/02/2013 14:05:26 -75.39, 25.97 89.69 2.75 0
3 09/02/2013 14:51:23 81.83,-106.01 78.64 09/02/2013 14:52:36 81.25,-106.22 78.38 64.64 73
4 09/05/2013 05:32:46 74.16, -28.93 92.58 09/05/2013 05:32:03 74.16, -28.99 92.64 2.04 43
5 09/05/2013 06:21:44 -75.67, 142.61 89.08 09/05/2013 06:22:17 -75.67, 142.63 89.12 0.58 33
6 09/07/2013 21:49:00 74.70, 88.25 92.92 09/07/2013 21:48:50 74.69, 88.17 92.95 2.58 10
7 09/07/2013 22:38:00 -76.09,-100.24 88.62 09/07/2013 22:39:06 -76.09,-100.22 88.69 0.49 66
8 09/10/2013 13:16:09 -74.19, 35.28 85.61 09/10/2013 13:15:14 -74.20, 35.32 85.57 1.34 55
9 09/10/2013 14:05:12 75.31,-154.25 93.19 09/10/2013 14:05:35 75.31,-154.29 93.17 1.09 23
10 09/13/2013 05:32:26 -74.53, 151.99 85.03 09/13/2013 05:32:05 -74.53, 151.95 85.01 1.16 21




NCC Satellite Simultaneous Nadir Overpasses (SNOs) Prediction Service
